Temp
-10 -10 -10 -10 -9 -9 -9 -9 -10 -10 -10 -10 -10 -10 -10 -10 -10 -10 -10 -10 -10 -10 -10 -10 -10 -10 -10 -10 -10 -10 -9 -10 -10 -10 -10 -10 -10 -11 -11 -11 -11 -11 -11 -11 -11
-10 -10 -10 -10 -10 -10 -10 -10 -10 -10 -10 -10 -10 -10 -10 -10 -10 -10 -10 -10 -10 -10 -10 -10 -10 -10 -10 -10 -10 -10 -9 -10 -10 -10 -10 -10 -10 -11 -11 -11 -11 -11 -11 -11 -11
-10 -10 -10 -10 -10 -10 -10 -10 -10 -10 -10 -10 -10 -10 -10 -10 -10 -10 -10 -10 -10 -10 -10 -10 -10 -10 -10 -10 -10 -10 -10 -10 -10 -10 -10 -10 -10 -10 -11 -11 -11 -10 -10 -10 -10
-10 -10 -10 -10 -10 -10 -10 -10 -10 -10 -10 -10 -10 -10 -10 -10 -10 -10 -10 -10 -10 -10 -10 -10 -10 -10 -10 -10 -10 -10 -10 -10 -10 -10 -10 -10 -10 -10 -11 -11 -11 -11 -11 -11 -10
-10 -10 -10 -10 -10 -10 -10 -10 -10 -10 -10 -10 -10 -10 -10 -10 -10 -10 -10 -10 -10 -10 -10 -10 -10 -10 -10 -10 -10 -10 -10 -10 -11 -10 -10 -10 -10 -11 -11 -11 -11 -11 -11 -11 -11
-11 -10 -10 -10 -10 -10 -10 -10 -10 -10 -10 -10 -10 -10 -10 -10 -10 -10 -10 -10 -10 -10 -10 -10 -10 -10 -10 -10 -10 -10 -11 -11 -11 -10 -10 -11 -11 -11 -11 -11 -11 -11 -11 -11 -11
-11 -11 -11 -11 -11 -10 -10 -10 -10 -10 -10 -10 -10 -10 -10 -10 -10 -10 -10 -10 -10 -10 -10 -10 -10 -10 -10 -10 -10 -10 -10 -10 -10 -11 -11 -11 -11 -11 -11 -11 -11 -11 -11 -11 -11
-11 -11 -11 -11 -11 -11 -11 -11 -11 -11 -11 -11 -10 -10 -10 -10 -10 -10 -10 -10 -10 -10 -10 -10 -10 -10 -10 -10 -10 -10 -10 -11 -11 -10 -10 -10 -11 -11 -10 -10 -10 -10 -11 -11 -11
-12 -12 -11 -11 -11 -11 -11 -11 -11 -11 -11 -11 -11 -11 -10 -11 -10 -10 -10 -10 -10 -10 -10 -10 -10 -10 -10 -10 -10 -10 -10 -10 -11 -10 -10 -10 -10 -11 -10 -10 -10 -11 -11 -11 -11
-12 -12 -12 -12 -12 -12 -11 -11 -11 -11 -11 -11 -11 -11 -11 -11 -11 -11 -11 -11 -11 -11 -11 -11 -10 -10 -11 -11 -10 -10 -10 -10 -11 -10 -10 -10 -10 -11 -11 -11 -11 -11 -11 -11 -11
-12 -13 -13 -12 -12 -12 -12 -12 -12 -12 -12 -12 -11 -11 -11 -11 -11 -11 -11 -11 -11 -11 -11 -10 -10 -11 -11 -11 -10 -10 -10 -10 -11 -11 -10 -10 -10 -11 -11 -11 -11 -11 -11 -11 -11
-13 -12 -13 -12 -13 -13 -12 -12 -12 -12 -12 -12 -12 -11 -11 -11 -11 -11 -11 -11 -11 -11 -11 -11 -10 -11 -11 -10 -10 -10 -10 -10 -11 -11 -10 -10 -10 -11 -11 -11 -11 -11 -11 -12 -12
-13 -13 -13 -13 -13 -12 -13 -13 -13 -12 -12 -12 -12 -11 -12 -11 -11 -11 -12 -11 -11 -11 -11 -11 -11 -11 -11 -11 -11 -10 -11 -11 -11 -11 -11 -10 -10 -11 -11 -11 -11 -11 -12 -12 -12
-13 -13 -13 -13 -13 -13 -13 -13 -13 -13 -12 -11 -12 -11 -11 -12 -11 -11 -11 -11 -11 -11 -11 -10 -11 -11 -11 -11 -11 -10 -11 -11 -11 -11 -11 -11 -10 -10 -11 -12 -12 -12 -12 -13 -13
-13 -13 -13 -13 -13 -13 -14 -14 -14 -14 -12 -11 -11 -11 -12 -12 -11 -11 -12 -11 -11 -11 -11 -10 -10 -11 -11 -11 -11 -11 -12 -12 -12 -11 -10 -11 -11 -10 -11 -13 -13 -13 -13 -13 -13
-14 -14 -14 -13 -13 -14 -14 -14 -14 -14 -11 -11 -11 -11 -11 -12 -12 -12 -12 -12 -12 -11 -11 -11 -11 -11 -12 -12 -12 -12 -12 -12 -12 -12 -10 -12 -12 -9 -11 -12 -13 -13 -14 -14 -14
-13 -13 -13 -13 -13 -14 -14 -14 -15 -13 -11 -11 -11 -12 -12 -12 -12 -12 -12 -12 -12 -11 -11 -12 -12 -12 -12 -12 -12 -13 -13 -13 -12 -12 -12 -12 -12 -11 -12 -12 -13 -14 -14 -14 -15
-13 -13 -13 -13 -13 -14 -14 -14 -14 -10 -11 -12 -12 -12 -13 -13 -13 -13 -12 -12 -12 -12 -12 -12 -13 -13 -13 -13 -13 -13 -13 -13 -13 -13 -12 -12 -11 -11 -12 -13 -14 -14 -14 -15 -14
-14 -14 -13 -13 -13 -14 -14 -14 -11 -11 -12 -13 -13 -12 -12 -13 -13 -12 -12 -12 -12 -13 -13 -13 -13 -13 -14 -14 -14 -13 -13 -14 -14 -13 -12 -11 -12 -13 -14 -14 -15 -15 -15 -15 -15
-14 -14 -14 -14 -14 -14 -14 -15 -12 -12 -12 -13 -12 -13 -12 -13 -13 -13 -13 -12 -13 -14 -14 -14 -14 -14 -14 -14 -14 -14 -14 -15 -15 -14 -13 -12 -13 -14 -15 -15 -16 -16 -16 -16 -16
-14 -14 -14 -14 -14 -14 -15 -14 -13 -13 -13 -13 -13 -13 -13 -13 -13 -13 -13 -14 -14 -15 -15 -15 -15 -14 -14 -14 -15 -15 -14 -15 -16 -16 -16 -14 -14 -15 -15 -16 -16 -17 -17 -17 -17
-14 -14 -14 -14 -14 -14 -14 -14 -13 -13 -13 -13 -13 -14 -14 -14 -14 -14 -14 -14 -14 -15 -15 -15 -15 -14 -15 -14 -15 -15 -15 -16 -16 -16 -16 -16 -13 -15 -16 -16 -17 -17 -17 -18 -18
-14 -14 -14 -14 -14 -14 -14 -14 -14 -13 -13 -13 -13 -13 -14 -14 -15 -14 -14 -15 -15 -15 -16 -15 -15 -15 -14 -15 -15 -15 -16 -17 -17 -17 -16 -17 -16 -17 -17 -17 -18 -18 -18 -19 -19
-15 -15 -14 -14 -14 -14 -14 -14 -14 -14 -13 -13 -14 -14 -14 -14 -14 -14 -15 -15 -15 -16 -16 -16 -15 -14 -15 -16 -15 -15 -16 -17 -17 -17 -17 -17 -17 -17 -18 -18 -19 -19 -20 -20 -20
-16 -15 -15 -15 -15 -14 -14 -14 -14 -14 -14 -14 -14 -14 -15 -15 -15 -15 -15 -15 -16 -16 -16 -16 -15 -16 -16 -16 -17 -16 -16 -16 -17 -17 -18 -18 -18 -19 -19 -20 -20 -20 -20 -21 -21
-17 -16 -16 -15 -15 -15 -15 -15 -14 -14 -14 -14 -14 -14 -14 -15 -15 -15 -15 -16 -16 -16 -16 -17 -17 -17 -17 -17 -17 -17 -16 -16 -17 -17 -18 -19 -18 -19 -21 -20 -20 -20 -21 -21 -22
-17 -17 -16 -16 -16 -16 -15 -15 -15 -15 -14 -15 -15 -15 -15 -15 -15 -15 -15 -16 -16 -16 -17 -18 -18 -18 -17 -17 -18 -17 -15 -17 -18 -18 -19 -20 -20 -21 -21 -21 -21 -21 -22 -22 -23
Height
5846 5848 5849 5851 5852 5853 5855 5856 5858 5859 5860 5861 5862 5863 5863 5864 5865 5865 5866 5867 5868 5868 5868 5869 5869 5869 5868 5868 5868 5867 5866 5865 5865 5864 5865 5864 5863 5863 5862 5861 5861 5862 5862 5862 5862
5842 5844 5845 5847 5849 5850 5852 5853 5854 5856 5857 5858 5859 5860 5861 5861 5862 5863 5864 5864 5865 5865 5866 5866 5866 5866 5865 5865 5864 5864 5863 5862 5862 5861 5862 5862 5861 5860 5861 5860 5858 5857 5859 5859 5859
5837 5839 5841 5842 5844 5846 5847 5849 5851 5852 5854 5855 5856 5857 5857 5858 5858 5859 5860 5861 5861 5862 5862 5862 5862 5862 5861 5861 5860 5859 5859 5858 5859 5859 5859 5859 5858 5857 5857 5857 5858 5855 5854 5855 5855
5831 5834 5836 5838 5840 5842 5843 5845 5846 5848 5849 5850 5852 5852 5853 5854 5855 5855 5856 5856 5857 5857 5858 5858 5858 5857 5857 5857 5856 5855 5854 5854 5854 5854 5855 5855 5855 5853 5851 5854 5852 5852 5852 5851 5851
5824 5827 5830 5831 5833 5836 5838 5839 5841 5842 5844 5845 5846 5847 5848 5849 5849 5850 5851 5851 5852 5852 5853 5853 5853 5852 5852 5852 5852 5851 5850 5850 5849 5849 5850 5851 5850 5849 5846 5846 5846 5845 5846 5846 5846
5817 5820 5823 5825 5827 5829 5831 5833 5834 5836 5838 5839 5840 5842 5843 5844 5844 5845 5845 5846 5846 5847 5847 5847 5847 5847 5847 5847 5848 5848 5847 5846 5844 5843 5845 5845 5845 5843 5843 5841 5840 5841 5840 5840 5841
5809 5812 5814 5817 5819 5821 5823 5825 5827 5828 5830 5832 5834 5835 5837 5838 5838 5838 5839 5840 5840 5841 5841 5841 5841 5841 5841 5841 5841 5841 5842 5842 5841 5840 5839 5840 5841 5838 5838 5835 5835 5835 5835 5834 5834
5800 5803 5805 5808 5811 5813 5815 5817 5819 5820 5822 5824 5826 5827 5829 5830 5831 5831 5832 5833 5833 5834 5834 5834 5834 5835 5835 5835 5834 5834 5835 5836 5835 5835 5833 5833 5836 5832 5832 5829 5829 5828 5828 5827 5826
5790 5793 5796 5799 5801 5804 5806 5808 5810 5812 5813 5815 5817 5819 5821 5823 5823 5823 5824 5825 5825 5826 5827 5827 5827 5828 5830 5828 5827 5827 5828 5830 5829 5828 5826 5825 5830 5828 5824 5824 5824 5824 5822 5821 5820
5781 5784 5786 5789 5792 5795 5797 5799 5801 5803 5805 5806 5808 5810 5813 5814 5815 5815 5815 5816 5817 5818 5819 5819 5819 5821 5823 5820 5820 5820 5821 5822 5824 5822 5818 5817 5819 5823 5817 5817 5817 5816 5815 5815 5814
5770 5773 5776 5779 5783 5785 5788 5790 5793 5794 5795 5798 5799 5800 5802 5805 5806 5807 5808 5808 5809 5810 5811 5811 5812 5816 5813 5813 5812 5813 5813 5813 5816 5813 5810 5811 5810 5813 5810 5811 5811 5810 5809 5808 5808
5760 5764 5766 5769 5773 5775 5778 5780 5781 5782 5785 5787 5788 5790 5792 5794 5796 5798 5800 5801 5802 5802 5802 5803 5803 5805 5805 5805 5805 5805 5804 5806 5805 5803 5801 5802 5804 5803 5804 5803 5803 5802 5801 5801 5801
5749 5753 5756 5759 5762 5766 5768 5770 5771 5771 5772 5779 5779 5780 5783 5784 5787 5790 5791 5792 5793 5793 5794 5793 5794 5797 5797 5797 5797 5795 5797 5796 5795 5795 5793 5792 5794 5795 5795 5794 5793 5793 5792 5792 5790
5739 5742 5745 5749 5754 5757 5759 5759 5760 5761 5759 5766 5771 5769 5773 5776 5775 5782 5782 5783 5782 5784 5785 5783 5787 5787 5787 5789 5788 5786 5788 5786 5786 5785 5785 5784 5783 5786 5787 5784 5784 5784 5783 5782 5781
5726 5729 5733 5737 5741 5744 5746 5747 5749 5751 5749 5754 5758 5763 5765 5767 5769 5771 5772 5772 5772 5774 5775 5776 5775 5778 5778 5778 5778 5779 5778 5777 5776 5775 5775 5776 5776 5774 5775 5777 5777 5776 5775 5775 5774
5711 5715 5719 5724 5729 5733 5730 5733 5737 5739 5734 5742 5745 5752 5755 5757 5760 5759 5761 5762 5763 5763 5764 5765 5765 5767 5769 5769 5769 5770 5769 5767 5765 5765 5764 5769 5765 5760 5763 5764 5765 5765 5766 5764 5763
5697 5701 5707 5712 5719 5715 5716 5718 5720 5720 5727 5733 5736 5740 5744 5747 5748 5748 5749 5750 5752 5752 5754 5754 5756 5756 5758 5759 5760 5759 5758 5757 5756 5756 5756 5755 5753 5756 5754 5753 5752 5751 5750 5749 5746
5685 5688 5693 5699 5704 5700 5701 5702 5701 5714 5719 5722 5724 5725 5730 5734 5735 5736 5737 5738 5740 5742 5743 5743 5746 5746 5749 5750 5749 5748 5748 5748 5747 5745 5745 5743 5740 5742 5742 5741 5740 5739 5740 5737 5733
5672 5673 5676 5686 5689 5686 5684 5677 5690 5701 5708 5711 5712 5712 5715 5718 5722 5724 5725 5727 5728 5730 5732 5733 5734 5737 5737 5737 5737 5737 5735 5738 5734 5734 5734 5735 5732 5732 5730 5730 5730 5729 5724 5722 5721
5659 5660 5664 5674 5677 5674 5666 5667 5680 5689 5693 5695 5696 5701 5703 5706 5707 5710 5713 5718 5719 5721 5720 5722 5723 5724 5725 5725 5724 5726 5727 5725 5724 5723 5720 5721 5722 5719 5718 5718 5718 5714 5711 5711 5708
5643 5641 5654 5661 5663 5656 5650 5660 5670 5677 5679 5680 5685 5689 5691 5693 5697 5698 5701 5703 5705 5709 5708 5710 5711 5713 5713 5712 5715 5714 5713 5713 5713 5710 5709 5709 5708 5703 5704 5705 5701 5700 5698 5695 5692
5627 5627 5639 5645 5643 5640 5642 5654 5662 5664 5666 5668 5670 5678 5680 5682 5684 5686 5688 5691 5691 5694 5696 5698 5697 5697 5699 5700 5699 5700 5702 5701 5697 5700 5698 5694 5696 5692 5694 5689 5685 5684 5682 5678 5673
5613 5615 5623 5626 5625 5628 5636 5639 5645 5650 5652 5654 5657 5663 5668 5670 5671 5674 5676 5678 5679 5680 5681 5683 5683 5685 5684 5684 5686 5689 5691 5690 5687 5686 5680 5677 5681 5683 5678 5674 5673 5670 5666 5663 5660
5598 5600 5606 5608 5612 5619 5624 5626 5631 5635 5637 5640 5646 5649 5654 5655 5658 5660 5663 5664 5665 5667 5668 5667 5668 5668 5670 5672 5673 5674 5676 5676 5673 5666 5666 5665 5667 5666 5664 5661 5657 5653 5649 5644 5641
5582 5585 5591 5594 5601 5606 5611 5612 5617 5622 5625 5628 5630 5635 5639 5641 5644 5645 5647 5649 5653 5654 5654 5653 5654 5653 5654 5655 5654 5657 5659 5660 5655 5655 5648 5656 5651 5654 5649 5644 5639 5635 5629 5627 5624
5566 5571 5577 5583 5587 5590 5594 5595 5603 5607 5612 5614 5616 5623 5624 5625 5631 5631 5634 5635 5637 5639 5640 5639 5637 5638 5638 5640 5639 5639 5647 5643 5644 5640 5635 5635 5634 5637 5631 5626 5623 5617 5612 5611 5608
5548 5557 5563 5567 5571 5573 5579 5583 5590 5594 5597 5601 5605 5605 5605 5611 5613 5614 5616 5620 5620 5623 5625 5625 5624 5623 5621 5623 5622 5619 5634 5631 5625 5625 5623 5616 5624 5617 5615 5610 5605 5601 5597 5593 5588
Wind_Speed
24 23 21 21 21 19 17 16 15 13 12 12 11 12 13 13 14 15 14 13 12 11 11 11 12 14 16 16 17 20 22 23 19 16 14 13 14 14 17 19 20 19 16 14 12
28 27 25 24 23 22 20 19 18 18 17 16 16 15 16 17 16 17 17 17 16 16 16 17 17 18 19 20 21 23 24 21 17 16 15 15 17 17 17 19 20 20 13 13 15
31 30 29 28 27 26 24 23 22 21 21 20 20 18 18 20 20 20 20 20 21 21 21 22 22 22 23 24 25 25 24 19 17 17 18 18 18 19 20 20 17 18 19 19 17
35 34 33 32 30 30 28 27 26 25 25 25 24 22 20 21 24 23 24 25 25 25 24 24 24 25 27 27 26 22 20 20 21 21 19 19 20 21 25 21 21 19 19 19 20
39 38 37 36 35 34 32 31 30 30 29 28 27 26 24 24 26 25 26 26 26 26 26 27 28 29 30 27 21 19 21 23 25 24 22 21 21 23 26 26 24 24 21 19 17
42 41 41 40 38 37 37 36 35 35 34 32 31 29 28 29 29 29 29 29 29 30 30 31 31 31 27 25 25 23 25 26 26 26 23 23 24 26 26 28 27 25 26 24 22
45 45 45 44 43 42 41 40 39 38 38 37 36 35 33 34 33 34 33 33 33 34 33 34 32 30 28 29 28 27 25 24 24 25 27 26 25 28 26 28 27 26 26 27 28
48 47 47 47 46 45 45 44 44 42 41 39 38 37 34 34 35 36 36 36 36 36 36 35 33 31 30 29 29 27 26 25 26 26 28 27 24 28 27 29 29 29 30 31 32
48 48 48 49 48 47 47 46 45 44 44 43 42 40 39 36 37 38 38 38 38 37 35 34 34 33 30 29 31 29 27 24 25 26 31 32 26 27 31 32 31 30 32 32 33
52 51 50 49 48 47 48 47 46 45 44 44 42 42 39 37 36 37 38 37 36 35 36 36 35 31 28 32 30 30 29 30 28 31 36 37 35 28 34 33 32 31 27 26 27
52 52 52 52 51 50 51 50 49 49 46 45 46 44 42 39 38 39 39 38 37 36 35 34 34 29 32 32 34 35 35 35 33 37 38 36 36 32 35 32 29 29 29 29 29
52 51 51 51 51 50 50 49 49 49 47 46 46 44 41 38 38 37 36 36 35 36 37 36 35 32 33 35 38 39 40 39 39 38 37 35 32 33 32 32 34 33 31 30 30
54 53 52 51 49 49 48 49 49 49 49 43 44 43 41 40 39 38 38 38 38 37 35 37 38 35 37 39 41 43 42 40 39 36 35 36 35 32 33 37 39 38 36 33 32
56 54 55 52 53 51 48 50 51 51 52 48 45 46 43 40 43 37 37 38 39 38 40 43 41 42 42 42 41 41 37 37 36 37 37 38 42 38 35 37 36 36 36 36 36
61 62 59 57 57 55 54 54 54 52 55 52 49 45 45 45 43 41 41 42 43 43 43 42 44 43 43 39 39 36 36 37 37 38 41 41 45 47 42 36 35 36 36 35 34
66 65 67 62 59 59 60 57 56 59 62 56 53 49 47 43 42 40 39 43 43 44 42 40 40 38 37 38 38 37 37 38 39 41 46 39 44 50 44 42 40 35 34 37 39
66 64 64 65 62 66 71 63 58 66 59 56 57 55 54 51 47 46 44 43 45 44 39 38 38 38 39 36 37 38 39 41 43 43 46 46 47 46 47 45 43 42 45 45 46
63 66 65 59 61 64 69 74 71 61 54 52 52 50 50 50 49 47 46 44 44 41 38 38 38 38 37 37 41 41 42 42 43 46 48 47 47 47 47 45 44 47 47 46 48
54 53 53 56 56 58 66 70 61 60 55 57 55 52 49 48 47 46 46 44 42 41 41 40 41 39 40 41 41 42 44 40 46 47 50 53 52 49 50 51 52 49 49 50 50
51 50 49 45 46 47 56 65 53 62 61 53 54 53 49 44 46 43 43 42 41 42 43 43 44 42 41 42 44 45 45 45 44 46 53 56 55 56 55 54 52 51 51 52 53
53 56 57 51 48 58 66 60 58 57 54 54 52 46 45 46 45 45 44 45 43 43 44 44 45 47 46 47 44 45 49 47 45 50 52 57 59 62 60 56 57 55 54 54 56
60 66 58 53 59 62 62 62 59 52 53 53 57 51 47 46 47 48 49 46 48 46 47 46 48 49 48 48 49 50 49 47 50 51 54 60 62 61 59 57 56 55 56 58 60
62 63 66 62 68 65 63 62 61 61 61 61 60 54 51 49 50 51 51 52 54 49 49 50 53 53 54 56 54 50 47 48 51 53 63 62 67 58 57 58 55 55 59 61 63
57 62 64 66 66 65 67 65 66 66 67 68 64 60 59 57 59 58 56 58 56 53 55 56 57 59 61 59 59 60 58 54 55 62 62 65 60 59 58 57 57 59 62 64 66
53 56 54 62 65 67 68 70 65 67 70 71 72 64 61 66 63 63 65 63 57 58 59 59 61 61 61 60 60 62 61 62 64 60 64 59 58 57 59 59 60 63 67 68 70
57 57 54 60 57 59 62 66 72 70 69 73 72 71 71 70 66 66 64 62 62 60 54 54 62 64 64 65 66 67 67 73 62 64 62 60 61 57 59 62 64 68 71 69 70
66 56 53 56 63 63 64 67 66 68 72 70 68 70 72 69 69 69 69 68 67 63 61 60 62 64 68 68 68 72 75 66 65 61 57 61 56 58 61 65 68 69 70 71 72
Wind_Direction
226 228 229 228 227 231 234 235 235 238 241 250 257 265 263 256 251 246 243 241 244 251 261 267 278 286 292 295 302 305 311 313 307 300 296 299 299 306 308 313 317 319 324 327 325
233 234 233 232 232 235 239 240 241 243 246 251 259 261 266 263 254 250 250 251 256 263 271 275 278 283 289 294 300 305 308 309 306 299 299 299 299 303 305 309 314 314 314 312 319
235 236 237 235 236 237 240 243 245 246 251 256 259 260 262 264 262 257 256 257 262 268 271 275 279 283 288 292 297 301 301 298 297 293 295 297 294 297 299 304 311 304 309 312 311
234 237 238 239 240 242 243 245 247 249 253 257 262 263 261 262 261 260 260 262 265 269 272 277 281 285 290 293 295 294 288 290 296 293 293 293 294 296 296 305 302 301 303 307 310
236 237 239 240 241 244 247 248 250 252 255 258 261 262 262 264 263 261 260 261 265 269 273 278 283 288 292 291 291 290 285 290 295 293 293 292 290 291 297 300 300 298 298 298 296
238 239 242 243 244 246 247 250 252 256 258 259 261 261 261 261 263 263 262 264 268 271 275 279 283 285 285 283 287 283 283 288 290 292 292 293 294 292 294 295 295 294 298 297 294
240 241 244 246 248 249 251 253 255 257 259 261 262 261 261 261 261 262 263 265 268 271 276 280 281 279 279 282 284 283 281 280 278 281 285 285 285 283 289 288 288 289 292 297 300
242 243 245 248 250 251 253 254 256 258 259 260 262 263 263 262 264 264 265 265 268 272 277 279 277 278 280 283 282 278 276 275 278 282 282 283 281 285 286 285 289 294 297 298 299
242 245 247 249 251 252 254 256 257 259 261 262 263 264 264 262 263 265 266 268 271 273 275 275 276 277 278 277 275 275 282 282 282 282 280 279 277 277 276 276 279 282 286 290 293
243 245 247 249 251 253 255 256 258 259 260 262 261 263 264 264 264 264 266 268 271 272 273 274 273 274 277 273 275 280 283 282 282 279 277 277 277 274 271 275 278 279 281 283 284
244 245 247 248 251 252 254 256 257 257 258 260 262 262 263 264 265 264 266 267 267 269 270 269 272 275 270 273 278 281 282 282 284 280 277 277 280 283 279 279 278 281 284 286 286
243 246 247 249 250 251 253 255 256 257 256 257 259 260 261 262 263 264 264 265 266 268 270 273 272 270 272 275 278 280 279 285 282 280 280 283 284 284 286 289 289 286 286 285 284
242 244 246 249 252 251 254 254 255 256 256 252 256 258 260 261 263 265 267 269 269 269 271 270 271 269 271 274 278 277 280 281 278 279 280 286 288 287 290 292 291 291 290 286 285
243 246 245 246 251 255 256 257 257 257 256 254 252 257 259 264 264 267 268 269 267 268 270 269 270 270 268 275 271 270 271 271 275 280 283 284 290 288 286 284 286 288 289 289 290
242 242 244 247 248 247 251 254 254 259 258 258 254 255 257 262 269 268 264 263 266 269 269 271 268 266 268 269 270 269 268 272 276 277 283 287 291 291 284 281 281 284 285 286 287
239 239 242 245 248 246 247 250 253 254 255 258 261 261 259 261 266 268 264 260 262 267 267 265 265 265 263 264 266 270 271 270 271 274 280 285 284 286 287 288 288 284 285 287 286
245 251 253 246 252 251 252 246 248 251 255 261 264 268 266 264 268 263 263 262 261 264 266 261 261 262 262 262 265 266 266 267 271 277 285 283 281 286 287 290 289 291 294 295 293
248 249 253 249 252 254 253 248 247 253 257 263 268 264 264 263 262 260 260 261 263 262 259 256 256 258 262 266 267 265 266 269 278 280 281 278 280 285 288 287 288 290 293 291 287
247 245 244 247 248 251 253 256 253 252 265 270 266 258 256 261 259 255 255 257 257 257 258 257 255 257 260 262 265 272 273 276 277 279 283 286 284 286 286 289 291 292 291 288 289
234 242 240 245 248 246 248 252 256 252 259 259 257 257 257 253 256 253 255 254 251 252 255 258 261 262 262 266 269 275 274 269 272 276 278 281 284 283 284 286 290 289 289 288 286
230 230 241 238 244 247 244 246 245 253 250 253 253 249 248 252 252 256 258 260 258 256 258 260 263 266 267 269 272 269 269 267 269 269 276 280 284 286 288 291 291 292 290 287 284
231 234 234 231 238 240 241 245 249 243 249 249 254 247 246 249 251 255 259 260 263 261 261 263 264 267 269 270 269 265 266 267 269 276 277 276 284 286 290 291 290 289 289 287 284
233 236 232 239 238 235 245 249 243 248 248 250 250 248 242 247 253 257 258 258 262 264 264 266 269 271 269 270 273 270 268 265 270 274 276 277 285 288 287 288 287 285 282 280 280
229 229 231 230 232 240 243 249 248 251 251 252 249 250 245 251 255 258 256 259 260 261 266 266 267 268 272 271 271 270 270 271 275 276 282 281 287 290 289 287 285 283 281 279 280
236 231 232 237 239 240 243 249 251 247 249 248 252 247 251 254 256 257 260 261 257 262 260 260 263 265 268 267 264 268 272 273 274 282 284 290 291 290 286 284 281 280 280 280 281
234 243 241 241 241 239 240 248 247 246 248 246 247 250 254 254 252 258 258 254 254 258 257 257 260 263 264 262 258 260 268 269 279 285 290 291 291 292 284 281 283 281 280 282 282
232 249 245 242 242 244 243 246 245 247 250 250 255 248 251 248 254 251 252 251 249 249 250 256 261 258 261 261 261 265 269 275 282 285 288 285 289 281 281 279 279 279 281 281 282